This demonstration page uses our WeatherBlox Daily Observations layout. Learn more.

Left ArrowRight Arrow

38.83388, -104.82136

Hourly Observations for January 17, 2015

Temp ( °F °C ) Dew Point ( °F °C ) Humidity (%) Winds ( mph kmh ) Pressure ( in mb ) Visibility ( mi km ) Precip ( " mm )
12:56 am 00:56 Clear 44 6.5 13 -10.5 29 29 VRB 2 4 29.84 1011 10 16 N/A
1:56 am 01:56 Clear 42 5.7 14 -10.2 31 31 SSW 8 13 29.83 1010 10 16 N/A
2:56 am 02:56 Clear 39 4.1 16 -9.1 38 38 NNW 10 17 29.95 1014 10 16 N/A
3:56 am 03:56 Mostly Clear 41 4.9 13 -10.6 32 32 NW 8 13 29.96 1014 10 16 N/A
4:56 am 04:56 Mostly Clear 39 3.7 13 -10.7 34 34 VRB 5 7 29.98 1015 10 16 N/A
5:56 am 05:56 Partly Cloudy 36 2 17 -8.6 46 46 NNW 10 17 30.05 1018 10 16 N/A
6:56 am 06:56 Clear 37 2.6 8 -13.6 29 29 S 10 17 30.06 1018 10 16 N/A
7:30 am 07:30 Sunny 36 2 9 -13 32 32 WSW 13 20 30.06 1018 10 16 N/A
7:42 am 07:42 Sunny 39 4 -4 -20 16 16 NNE 12 19 30.00 1016 10 16 N/A
7:45 am 07:45 Sunny 39 4 -8 -22 13 13 NW 18 30 30.00 1016 10 16 N/A
7:53 am 07:53 Hazy 41 5 -8 -22 12 12 WNW 36 57 30.00 1016 3 5 N/A
7:56 am 07:56 Hazy 42 5.4 -10 -23.2 11 11 NW 26 43 30.00 1016 3 5 N/A
8:56 am 08:56 Sunny 45 7 -15 -26 7 7 NW 29 46 29.98 1015 10 16 N/A
9:01 am 09:01 Sunny 45 7 -15 -26 7 7 NW 32 52 29.94 1014 10 16 N/A
9:23 am 09:23 Sunny 45 7 -11 -24 9 9 NNW 31 50 29.97 1015 10 16 N/A
9:56 am 09:56 Sunny 46 7.7 -13 -25.2 7 7 NW 25 41 30.06 1018 10 16 N/A
10:51 am 10:51 Sunny 48 9 -11 -24 8 8 NW 20 31 30.00 1016 10 16 N/A
11:22 am 11:22 Sunny 46 8 5 -15 18 18 SSE 12 19 30.06 1018 10 16 N/A
11:45 am 11:45 Sunny 45 7 7 -14 21 21 SSE 17 28 30.09 1019 10 16 N/A
11:56 am 11:56 Sunny 44 6.8 5 -15.1 19 19 S 18 30 30.11 1020 10 16 N/A
12:56 pm 12:56 Sunny 44 6.9 4 -15.4 19 19 S 9 15 30.12 1020 10 16 N/A
1:56 pm 13:56 Sunny 46 7.8 4 -15.5 18 18 SSE 12 19 30.11 1020 10 16 N/A
2:56 pm 14:56 Mostly Cloudy 44 6.9 3 -16.1 18 18 S 12 19 30.15 1021 10 16 N/A
3:56 pm 15:56 Mostly Cloudy 44 6.7 3 -16.3 18 18 SSE 2 4 30.17 1022 10 16 N/A
4:56 pm 16:56 Partly Cloudy 40 4.7 4 -15.8 21 21 SSW 7 11 30.23 1024 10 16 N/A
5:56 pm 17:56 Mostly Clear 40 4.2 4 -15.6 22 22 WNW 12 19 30.24 1024 10 16 N/A
6:56 pm 18:56 Clear 37 2.5 7 -13.8 29 29 WNW 6 9 30.26 1025 10 16 N/A
7:56 pm 19:56 Mostly Cloudy 38 3.2 2 -16.4 22 22 NW 6 9 30.23 1024 10 16 N/A
8:56 pm 20:56 Mostly Cloudy 39 3.7 2 -16.7 21 21 VRB 2 4 30.17 1022 10 16 N/A
9:56 pm 21:56 Partly Cloudy 38 3.4 2 -16.5 22 22 VRB 7 11 30.16 1021 10 16 N/A
10:56 pm 22:56 Clear 38 3.6 3 -16.1 22 22 WNW 5 7 30.12 1020 10 16 N/A
11:56 pm 23:56 Mostly Cloudy 38 3.2 2 -16.8 22 22 WNW 6 9 30.12 1020 10 16 N/A

Powered by AerisWeather